Location: Bullenkuhlen
(53.7689°N, 9.7495°E)
Time: 21:58:43
(UTC+00:00)

Cosmos 1818 - Pass Details

Date: 09 April 2020
Orbit: 778 x 796 km, 65.0° (Epoch: 29 May)

Event Time Altitude Azimuth Distance (km) Brightness Sun altitude
Rises 19:37:30 0° 238° (WSW) 3,280 7.1 -12.3°
Reaches altitude 10° 19:39:57 10° 242° (WSW) 2,356 6.4 -12.6°
Maximum altitude 19:45:18 59° 322° (NW) 916 4.2 -13.3°
Drops below altitude 10° 19:50:42 10° 42° (NE) 2,375 6.0 -13.9°
Sets 19:53:11 0° 46° (NE) 3,309 6.7 -14.2°
